Time,TemperatureF,DewpointF,PressureIn,WindDirection,WindDirectionDegrees,WindSpeedMPH,WindSpeedGustMPH,Humidity,HourlyPrecipIn,Conditions,Clouds,dailyrainin,SoftwareType,DateUTC
2013-02-22 00:00:00,21.7,14.2,30.26,West,260,0.0,5.0,72,0.00,,,0.00,meteohub,2013-02-22 05:00:00,
2013-02-22 00:01:00,21.7,14.2,30.26,WNW,293,1.0,5.0,72,0.00,,,0.00,meteohub,2013-02-22 05:01:00,
2013-02-22 00:02:00,21.7,14.2,30.26,SW,228,1.0,5.0,72,0.00,,,0.00,meteohub,2013-02-22 05:02:00,
2013-02-22 00:07:00,21.6,14.0,30.27,NW,323,0.0,5.0,72,0.00,,,0.00,meteohub,2013-02-22 05:07:00,
2013-02-22 00:12:00,21.6,14.0,30.27,West,273,1.0,6.0,72,0.00,,,0.00,meteohub,2013-02-22 05:12:00,
2013-02-22 00:18:00,21.6,14.0,30.27,West,269,2.0,6.0,72,0.00,,,0.00,meteohub,2013-02-22 05:18:00,
2013-02-22 00:23:00,21.6,14.2,30.27,WSW,239,1.0,6.0,73,0.00,,,0.00,meteohub,2013-02-22 05:23:00,
2013-02-22 00:28:00,21.6,14.2,30.28,SSW,207,0.0,6.0,73,0.00,,,0.00,meteohub,2013-02-22 05:28:00,
2013-02-22 00:33:00,21.2,14.2,30.28,SSW,207,0.0,6.0,74,0.00,,,0.00,meteohub,2013-02-22 05:33:00,
2013-02-22 00:38:00,20.8,13.8,30.27,SSW,207,0.0,3.0,74,0.00,,,0.00,meteohub,2013-02-22 05:38:00,
2013-02-22 00:43:00,20.7,14.4,30.27,SSW,212,0.0,1.0,76,0.00,,,0.00,meteohub,2013-02-22 05:43:00,
2013-02-22 00:48:00,20.5,14.4,30.27,WNW,290,0.0,1.0,77,0.00,,,0.00,meteohub,2013-02-22 05:48:00,
2013-02-22 00:53:00,20.1,13.8,30.27,SSE,155,0.0,2.0,76,0.00,,,0.00,meteohub,2013-02-22 05:53:00,
2013-02-22 00:58:00,20.3,14.0,30.27,West,278,1.0,3.0,76,0.00,,,0.00,meteohub,2013-02-22 05:58:00,
2013-02-22 01:03:00,20.5,14.2,30.27,West,265,2.0,5.0,76,0.00,,,0.00,meteohub,2013-02-22 06:03:00,
2013-02-22 01:08:00,20.5,13.8,30.26,ENE,59,1.0,5.0,75,0.00,,,0.00,meteohub,2013-02-22 06:08:00,
2013-02-22 01:13:00,20.5,13.8,30.26,East,83,0.0,5.0,75,0.00,,,0.00,meteohub,2013-02-22 06:13:00,
2013-02-22 01:18:00,20.3,14.0,30.27,West,280,1.0,4.0,76,0.00,,,0.00,meteohub,2013-02-22 06:18:00,
2013-02-22 01:23:00,20.1,13.8,30.27,West,266,1.0,3.0,76,0.00,,,0.00,meteohub,2013-02-22 06:23:00,
2013-02-22 01:29:00,20.1,13.8,30.27,East,80,0.0,2.0,76,0.00,,,0.00,meteohub,2013-02-22 06:29:00,
2013-02-22 01:34:00,19.9,13.6,30.27,NE,43,0.0,2.0,76,0.00,,,0.00,meteohub,2013-02-22 06:34:00,
2013-02-22 01:39:00,19.8,13.5,30.27,NE,43,0.0,2.0,76,0.00,,,0.00,meteohub,2013-02-22 06:39:00,
2013-02-22 01:44:00,19.6,13.6,30.27,ENE,78,0.0,2.0,77,0.00,,,0.00,meteohub,2013-02-22 06:44:00,
2013-02-22 01:49:00,19.4,13.5,30.27,East,91,0.0,2.0,77,0.00,,,0.00,meteohub,2013-02-22 06:49:00,
2013-02-22 01:54:00,19.2,13.3,30.27,ENE,70,1.0,2.0,77,0.00,,,0.00,meteohub,2013-02-22 06:54:00,
2013-02-22 01:59:00,19.4,13.6,30.28,ENE,71,1.0,2.0,78,0.00,,,0.00,meteohub,2013-02-22 06:59:00,
2013-02-22 02:04:00,19.2,13.3,30.28,ENE,71,0.0,2.0,77,0.00,,,0.00,meteohub,2013-02-22 07:04:00,
2013-02-22 02:09:00,18.9,13.5,30.29,ENE,71,0.0,2.0,79,0.00,,,0.00,meteohub,2013-02-22 07:09:00,
2013-02-22 02:14:00,18.3,12.9,30.29,ENE,70,0.0,2.0,79,0.00,,,0.00,meteohub,2013-02-22 07:14:00,
2013-02-22 02:19:00,18.1,13.1,30.29,ENE,71,0.0,0.0,80,0.00,,,0.00,meteohub,2013-02-22 07:19:00,
2013-02-22 02:24:00,18.3,13.3,30.29,ENE,71,0.0,1.0,80,0.00,,,0.00,meteohub,2013-02-22 07:24:00,
2013-02-22 02:29:00,18.0,13.1,30.29,ENE,71,0.0,1.0,81,0.00,,,0.00,meteohub,2013-02-22 07:29:00,
2013-02-22 02:34:00,17.8,12.9,30.28,ENE,71,0.0,1.0,81,0.00,,,0.00,meteohub,2013-02-22 07:34:00,
2013-02-22 02:39:00,17.6,13.1,30.29,ESE,113,0.0,1.0,82,0.00,,,0.00,meteohub,2013-02-22 07:39:00,
2013-02-22 02:45:00,17.8,13.3,30.29,ESE,113,0.0,2.0,82,0.00,,,0.00,meteohub,2013-02-22 07:45:00,
2013-02-22 02:50:00,18.0,13.5,30.28,ESE,105,0.0,2.0,82,0.00,,,0.00,meteohub,2013-02-22 07:50:00,
2013-02-22 02:55:00,18.0,13.5,30.29,ESE,106,0.0,2.0,82,0.00,,,0.00,meteohub,2013-02-22 07:55:00,
2013-02-22 03:00:00,17.8,13.3,30.29,ESE,105,0.0,1.0,82,0.00,,,0.00,meteohub,2013-02-22 08:00:00,
2013-02-22 03:05:00,17.8,13.3,30.29,East,84,0.0,1.0,82,0.00,,,0.00,meteohub,2013-02-22 08:05:00,
2013-02-22 03:10:00,17.8,13.5,30.29,East,84,1.0,1.0,83,0.00,,,0.00,meteohub,2013-02-22 08:10:00,
2013-02-22 03:15:00,17.8,13.5,30.29,ENE,78,0.0,1.0,83,0.00,,,0.00,meteohub,2013-02-22 08:15:00,
2013-02-22 03:20:00,17.4,12.9,30.29,ENE,78,0.0,1.0,82,0.00,,,0.00,meteohub,2013-02-22 08:20:00,
2013-02-22 03:25:00,17.4,13.1,30.30,ENE,77,0.0,1.0,83,0.00,,,0.00,meteohub,2013-02-22 08:25:00,
2013-02-22 03:30:00,17.4,13.1,30.30,ENE,77,0.0,1.0,83,0.00,,,0.00,meteohub,2013-02-22 08:30:00,
2013-02-22 03:35:00,17.2,12.9,30.29,ENE,77,0.0,1.0,83,0.00,,,0.00,meteohub,2013-02-22 08:35:00,
2013-02-22 03:40:00,17.4,13.1,30.29,East,101,1.0,1.0,83,0.00,,,0.00,meteohub,2013-02-22 08:40:00,
2013-02-22 03:45:00,17.2,13.3,30.29,ENE,76,1.0,2.0,84,0.00,,,0.00,meteohub,2013-02-22 08:45:00,
2013-02-22 03:50:00,17.4,13.5,30.30,ENE,73,0.0,2.0,84,0.00,,,0.00,meteohub,2013-02-22 08:50:00,
2013-02-22 03:55:00,17.4,13.5,30.30,ENE,73,1.0,2.0,84,0.00,,,0.00,meteohub,2013-02-22 08:55:00,
2013-02-22 04:01:00,17.4,13.6,30.30,ENE,73,0.0,2.0,85,0.00,,,0.00,meteohub,2013-02-22 09:01:00,
2013-02-22 04:06:00,17.6,13.8,30.30,East,90,0.0,2.0,85,0.00,,,0.00,meteohub,2013-02-22 09:06:00,
2013-02-22 04:11:00,17.8,14.0,30.30,East,90,0.0,2.0,85,0.00,,,0.00,meteohub,2013-02-22 09:11:00,
2013-02-22 04:16:00,17.6,13.6,30.30,East,90,0.0,1.0,84,0.00,,,0.00,meteohub,2013-02-22 09:16:00,
2013-02-22 04:21:00,17.6,13.8,30.30,East,90,0.0,1.0,85,0.00,,,0.00,meteohub,2013-02-22 09:21:00,
2013-02-22 04:26:00,17.4,13.6,30.30,East,90,0.0,1.0,85,0.00,,,0.00,meteohub,2013-02-22 09:26:00,
2013-02-22 04:31:00,17.4,13.6,30.30,East,84,1.0,0.0,85,0.00,,,0.00,meteohub,2013-02-22 09:31:00,
2013-02-22 04:36:00,17.4,13.6,30.30,ENE,78,1.0,1.0,85,0.00,,,0.00,meteohub,2013-02-22 09:36:00,
2013-02-22 04:41:00,17.4,14.0,30.30,ENE,78,0.0,1.0,86,0.00,,,0.00,meteohub,2013-02-22 09:41:00,
2013-02-22 04:46:00,17.4,14.0,30.30,ENE,78,1.0,1.0,86,0.00,,,0.00,meteohub,2013-02-22 09:46:00,
2013-02-22 04:51:00,17.4,14.0,30.30,ENE,78,1.0,1.0,86,0.00,,,0.00,meteohub,2013-02-22 09:51:00,
2013-02-22 04:56:00,17.8,14.4,30.30,ENE,78,0.0,2.0,86,0.00,,,0.00,meteohub,2013-02-22 09:56:00,
2013-02-22 05:01:00,17.8,14.0,30.30,ENE,77,1.0,2.0,85,0.00,,,0.00,meteohub,2013-02-22 10:01:00,
2013-02-22 05:06:00,17.8,14.0,30.30,ENE,78,0.0,2.0,85,0.00,,,0.00,meteohub,2013-02-22 10:06:00,
2013-02-22 05:12:00,17.6,13.8,30.30,ENE,77,0.0,1.0,85,0.00,,,0.00,meteohub,2013-02-22 10:12:00,
2013-02-22 05:17:00,17.4,13.6,30.31,ENE,78,0.0,1.0,85,0.00,,,0.00,meteohub,2013-02-22 10:17:00,
2013-02-22 05:22:00,17.4,14.0,30.32,ENE,77,0.0,0.0,86,0.00,,,0.00,meteohub,2013-02-22 10:22:00,
2013-02-22 05:27:00,17.4,14.0,30.32,ENE,77,1.0,0.0,86,0.00,,,0.00,meteohub,2013-02-22 10:27:00,
2013-02-22 05:32:00,17.4,14.0,30.32,East,88,1.0,1.0,86,0.00,,,0.00,meteohub,2013-02-22 10:32:00,
2013-02-22 05:37:00,17.8,14.5,30.33,East,86,0.0,1.0,87,0.00,,,0.00,meteohub,2013-02-22 10:37:00,
2013-02-22 05:42:00,17.8,14.5,30.34,East,86,0.0,1.0,87,0.00,,,0.00,meteohub,2013-02-22 10:42:00,
2013-02-22 05:47:00,18.0,14.5,30.34,East,86,0.0,1.0,86,0.00,,,0.00,meteohub,2013-02-22 10:47:00,
2013-02-22 05:52:00,17.8,14.4,30.35,East,86,0.0,1.0,86,0.00,,,0.00,meteohub,2013-02-22 10:52:00,
2013-02-22 05:57:00,17.8,14.5,30.35,East,86,0.0,1.0,87,0.00,,,0.00,meteohub,2013-02-22 10:57:00,
2013-02-22 06:02:00,17.8,14.4,30.35,East,86,0.0,0.0,86,0.00,,,0.00,meteohub,2013-02-22 11:02:00,
2013-02-22 06:07:00,17.8,14.5,30.35,East,86,0.0,0.0,87,0.00,,,0.00,meteohub,2013-02-22 11:07:00,
2013-02-22 06:12:00,17.8,14.4,30.34,East,86,0.0,0.0,86,0.00,,,0.00,meteohub,2013-02-22 11:12:00,
2013-02-22 06:17:00,17.8,14.4,30.34,East,86,0.0,0.0,86,0.00,,,0.00,meteohub,2013-02-22 11:17:00,
2013-02-22 06:22:00,17.8,14.5,30.34,East,86,0.0,0.0,87,0.00,,,0.00,meteohub,2013-02-22 11:22:00,
2013-02-22 06:27:00,18.0,14.7,30.33,ENE,69,0.0,0.0,87,0.00,,,0.00,meteohub,2013-02-22 11:27:00,
2013-02-22 06:32:00,18.1,14.9,30.32,ENE,70,0.0,0.0,87,0.00,,,0.00,meteohub,2013-02-22 11:32:00,
2013-02-22 06:37:00,18.1,14.9,30.33,ENE,69,0.0,0.0,87,0.00,,,0.00,meteohub,2013-02-22 11:37:00,
2013-02-22 06:43:00,18.3,15.1,30.33,ENE,69,0.0,0.0,87,0.00,,,0.00,meteohub,2013-02-22 11:43:00,
2013-02-22 06:48:00,18.3,15.1,30.33,ENE,70,0.0,0.0,87,0.00,,,0.00,meteohub,2013-02-22 11:48:00,
2013-02-22 06:53:00,18.3,15.1,30.33,ENE,70,0.0,0.0,87,0.00,,,0.00,meteohub,2013-02-22 11:53:00,
2013-02-22 06:58:00,18.5,15.3,30.33,ENE,69,0.0,0.0,87,0.00,,,0.00,meteohub,2013-02-22 11:58:00,
2013-02-22 07:03:00,18.7,15.8,30.33,ENE,70,0.0,0.0,88,0.00,,,0.00,meteohub,2013-02-22 12:03:00,
2013-02-22 07:08:00,18.7,15.8,30.34,ENE,69,0.0,0.0,88,0.00,,,0.00,meteohub,2013-02-22 12:08:00,
2013-02-22 07:13:00,18.9,16.0,30.34,ENE,70,0.0,0.0,88,0.00,,,0.00,meteohub,2013-02-22 12:13:00,
2013-02-22 07:18:00,18.9,16.0,30.35,ENE,69,0.0,0.0,88,0.00,,,0.00,meteohub,2013-02-22 12:18:00,
2013-02-22 07:23:00,19.0,16.2,30.35,ENE,70,0.0,0.0,88,0.00,,,0.00,meteohub,2013-02-22 12:23:00,
2013-02-22 07:28:00,19.4,16.5,30.36,ENE,70,0.0,0.0,88,0.00,,,0.00,meteohub,2013-02-22 12:28:00,
2013-02-22 07:33:00,19.6,16.5,30.36,ENE,69,0.0,0.0,88,0.00,,,0.00,meteohub,2013-02-22 12:33:00,
2013-02-22 07:38:00,19.9,16.9,30.36,ENE,70,0.0,0.0,88,0.00,,,0.00,meteohub,2013-02-22 12:38:00,
2013-02-22 07:43:00,20.3,17.2,30.36,ENE,70,0.0,0.0,88,0.00,,,0.00,meteohub,2013-02-22 12:43:00,
2013-02-22 07:48:00,20.7,17.6,30.36,ENE,70,0.0,0.0,88,0.00,,,0.00,meteohub,2013-02-22 12:48:00,
2013-02-22 07:54:00,21.0,18.0,30.36,ENE,69,0.0,0.0,88,0.00,,,0.00,meteohub,2013-02-22 12:54:00,
2013-02-22 07:59:00,21.6,18.3,30.36,ENE,69,0.0,0.0,87,0.00,,,0.00,meteohub,2013-02-22 12:59:00,
2013-02-22 08:04:00,21.9,18.3,30.35,ENE,69,0.0,0.0,86,0.00,,,0.00,meteohub,2013-02-22 13:04:00,
2013-02-22 08:09:00,22.5,18.3,30.35,ENE,68,0.0,0.0,84,0.00,,,0.00,meteohub,2013-02-22 13:09:00,
2013-02-22 08:14:00,22.8,18.1,30.36,ENE,66,0.0,0.0,82,0.00,,,0.00,meteohub,2013-02-22 13:14:00,
2013-02-22 08:19:00,23.4,18.7,30.36,ENE,66,0.0,0.0,82,0.00,,,0.00,meteohub,2013-02-22 13:19:00,
2013-02-22 08:24:00,23.7,18.7,30.36,SSE,150,0.0,0.0,81,0.00,,,0.00,meteohub,2013-02-22 13:24:00,
2013-02-22 08:29:00,24.1,18.5,30.37,West,266,0.0,0.0,79,0.00,,,0.00,meteohub,2013-02-22 13:29:00,
2013-02-22 08:34:00,24.4,18.9,30.37,NNW,345,0.0,0.0,79,0.00,,,0.00,meteohub,2013-02-22 13:34:00,
2013-02-22 08:39:00,24.8,19.2,30.37,NNW,345,0.0,0.0,79,0.00,,,0.00,meteohub,2013-02-22 13:39:00,
2013-02-22 08:44:00,25.0,18.9,30.37,WNW,290,0.0,0.0,77,0.00,,,0.00,meteohub,2013-02-22 13:44:00,
2013-02-22 08:49:00,25.2,18.7,30.37,NNE,16,0.0,0.0,76,0.00,,,0.00,meteohub,2013-02-22 13:49:00,
2013-02-22 08:54:00,25.3,18.9,30.36,NE,35,0.0,0.0,76,0.00,,,0.00,meteohub,2013-02-22 13:54:00,
2013-02-22 09:00:00,25.9,19.4,30.36,NNW,336,0.0,0.0,76,0.00,,,0.00,meteohub,2013-02-22 14:00:00,
2013-02-22 09:05:00,26.1,19.2,30.35,WNW,288,0.0,0.0,75,0.00,,,0.00,meteohub,2013-02-22 14:05:00,
2013-02-22 09:10:00,26.4,19.9,30.35,ENE,64,0.0,2.0,76,0.00,,,0.00,meteohub,2013-02-22 14:10:00,
2013-02-22 09:15:00,27.0,19.8,30.35,East,84,2.0,2.0,74,0.00,,,0.00,meteohub,2013-02-22 14:15:00,
2013-02-22 09:20:00,27.0,19.8,30.34,ESE,108,1.0,2.0,74,0.00,,,0.00,meteohub,2013-02-22 14:20:00,
2013-02-22 09:25:00,27.0,19.4,30.34,East,90,2.0,4.0,73,0.00,,,0.00,meteohub,2013-02-22 14:25:00,
2013-02-22 09:30:00,27.3,20.5,30.35,NNW,334,0.0,5.0,75,0.00,,,0.00,meteohub,2013-02-22 14:30:00,
2013-02-22 09:35:00,27.7,20.1,30.34,ENE,57,4.0,5.0,73,0.00,,,0.00,meteohub,2013-02-22 14:35:00,
2013-02-22 09:40:00,28.0,20.5,30.34,NE,52,5.0,6.0,73,0.00,,,0.00,meteohub,2013-02-22 14:40:00,
2013-02-22 09:45:00,28.4,20.5,30.33,NE,56,6.0,7.0,72,0.00,,,0.00,meteohub,2013-02-22 14:45:00,
2013-02-22 09:50:00,28.8,20.8,30.33,NE,54,9.0,9.0,72,0.00,,,0.00,meteohub,2013-02-22 14:50:00,
2013-02-22 09:55:00,28.8,20.8,30.33,ESE,117,7.0,9.0,72,0.00,,,0.00,meteohub,2013-02-22 14:55:00,
2013-02-22 10:00:00,29.3,21.0,30.33,East,94,3.0,9.0,71,0.00,,,0.00,meteohub,2013-02-22 15:00:00,
2013-02-22 10:06:00,30.4,21.7,30.33,SE,139,5.0,9.0,70,0.00,,,0.00,meteohub,2013-02-22 15:06:00,
2013-02-22 10:11:00,30.7,21.4,30.33,ESE,107,1.0,9.0,68,0.00,,,0.00,meteohub,2013-02-22 15:11:00,
2013-02-22 10:16:00,31.3,21.9,30.33,SE,134,4.0,9.0,68,0.00,,,0.00,meteohub,2013-02-22 15:16:00,
2013-02-22 10:21:00,31.8,22.1,30.34,NE,52,5.0,9.0,67,0.00,,,0.00,meteohub,2013-02-22 15:21:00,
2013-02-22 10:26:00,32.5,22.5,30.34,ENE,68,1.0,7.0,66,0.00,,,0.00,meteohub,2013-02-22 15:26:00,
2013-02-22 10:31:00,33.1,22.3,30.33,SE,145,2.0,6.0,64,0.00,,,0.00,meteohub,2013-02-22 15:31:00,
2013-02-22 10:36:00,33.1,22.3,30.33,East,98,2.0,9.0,64,0.00,,,0.00,meteohub,2013-02-22 15:36:00,
2013-02-22 10:41:00,32.7,21.6,30.33,ESE,111,1.0,9.0,63,0.00,,,0.00,meteohub,2013-02-22 15:41:00,
2013-02-22 10:46:00,32.7,21.9,30.33,ESE,104,3.0,9.0,64,0.00,,,0.00,meteohub,2013-02-22 15:46:00,
2013-02-22 10:52:00,32.5,21.7,30.33,ENE,61,7.0,9.0,64,0.00,,,0.00,meteohub,2013-02-22 15:52:00,
2013-02-22 10:57:00,32.4,21.9,30.33,East,82,3.0,9.0,65,0.00,,,0.00,meteohub,2013-02-22 15:57:00,
2013-02-22 11:02:00,32.2,21.7,30.33,ESE,104,0.0,9.0,65,0.00,,,0.00,meteohub,2013-02-22 16:02:00,
2013-02-22 11:07:00,32.4,22.3,30.33,SSE,161,3.0,9.0,66,0.00,,,0.00,meteohub,2013-02-22 16:07:00,
2013-02-22 11:12:00,32.4,21.9,30.33,NE,56,6.0,9.0,65,0.00,,,0.00,meteohub,2013-02-22 16:12:00,
2013-02-22 11:17:00,32.2,21.7,30.33,ENE,76,3.0,11.0,65,0.00,,,0.00,meteohub,2013-02-22 16:17:00,
2013-02-22 11:22:00,32.2,22.1,30.33,ENE,66,2.0,11.0,66,0.00,,,0.00,meteohub,2013-02-22 16:22:00,
2013-02-22 11:27:00,32.4,22.3,30.33,NNE,25,6.0,10.0,66,0.00,,,0.00,meteohub,2013-02-22 16:27:00,
2013-02-22 11:32:00,32.5,22.1,30.33,ENE,72,5.0,10.0,65,0.00,,,0.00,meteohub,2013-02-22 16:32:00,
2013-02-22 11:37:00,33.1,23.0,30.32,SE,131,1.0,10.0,66,0.00,,,0.00,meteohub,2013-02-22 16:37:00,
2013-02-22 11:42:00,33.3,22.8,30.32,SE,129,2.0,10.0,65,0.00,,,0.00,meteohub,2013-02-22 16:42:00,
2013-02-22 11:47:00,33.6,22.8,30.32,NE,52,3.0,8.0,64,0.00,,,0.00,meteohub,2013-02-22 16:47:00,
2013-02-22 11:52:00,33.4,22.6,30.32,SE,141,1.0,7.0,64,0.00,,,0.00,meteohub,2013-02-22 16:52:00,
2013-02-22 11:57:00,33.4,22.6,30.31,ENE,63,8.0,8.0,64,0.00,,,0.00,meteohub,2013-02-22 16:57:00,
2013-02-22 12:02:00,33.4,22.6,30.31,ENE,67,8.0,9.0,64,0.00,,,0.00,meteohub,2013-02-22 17:02:00,
2013-02-22 12:07:00,33.4,23.0,30.31,East,82,7.0,11.0,65,0.00,,,0.00,meteohub,2013-02-22 17:07:00,
2013-02-22 12:12:00,33.4,22.6,30.31,East,90,4.0,12.0,64,0.00,,,0.00,meteohub,2013-02-22 17:12:00,
2013-02-22 12:17:00,34.0,23.0,30.31,ENE,65,7.0,12.0,64,0.00,,,0.00,meteohub,2013-02-22 17:17:00,
2013-02-22 12:22:00,34.0,23.0,30.31,NE,56,6.0,12.0,64,0.00,,,0.00,meteohub,2013-02-22 17:22:00,
2013-02-22 12:27:00,34.0,23.0,30.30,ENE,65,5.0,10.0,64,0.00,,,0.00,meteohub,2013-02-22 17:27:00,
2013-02-22 12:32:00,34.0,23.0,30.29,ENE,67,4.0,10.0,64,0.00,,,0.00,meteohub,2013-02-22 17:32:00,
2013-02-22 12:37:00,34.2,23.2,30.29,NE,54,6.0,10.0,64,0.00,,,0.00,meteohub,2013-02-22 17:37:00,
2013-02-22 12:42:00,34.3,23.0,30.28,NE,47,4.0,9.0,63,0.00,,,0.00,meteohub,2013-02-22 17:42:00,
2013-02-22 12:47:00,34.5,23.5,30.28,ENE,62,3.0,11.0,64,0.00,,,0.00,meteohub,2013-02-22 17:47:00,
2013-02-22 12:52:00,34.9,23.5,30.27,NE,53,7.0,11.0,63,0.00,,,0.00,meteohub,2013-02-22 17:52:00,
2013-02-22 12:57:00,35.2,23.9,30.27,SE,124,2.0,11.0,63,0.00,,,0.00,meteohub,2013-02-22 17:57:00,
2013-02-22 13:02:00,35.4,23.7,30.27,ENE,75,4.0,11.0,62,0.00,,,0.00,meteohub,2013-02-22 18:02:00,
2013-02-22 13:07:00,35.2,23.5,30.27,ENE,75,4.0,11.0,62,0.00,,,0.00,meteohub,2013-02-22 18:07:00,
2013-02-22 13:12:00,35.1,23.7,30.27,ENE,73,5.0,9.0,63,0.00,,,0.00,meteohub,2013-02-22 18:12:00,
2013-02-22 13:17:00,35.1,23.7,30.27,ESE,121,1.0,10.0,63,0.00,,,0.00,meteohub,2013-02-22 18:17:00,
2013-02-22 13:22:00,35.2,23.9,30.27,ESE,122,3.0,10.0,63,0.00,,,0.00,meteohub,2013-02-22 18:22:00,
2013-02-22 13:27:00,35.2,23.5,30.27,SE,131,0.0,10.0,62,0.00,,,0.00,meteohub,2013-02-22 18:27:00,
2013-02-22 13:32:00,35.4,24.1,30.27,SSE,148,2.0,7.0,63,0.00,,,0.00,meteohub,2013-02-22 18:32:00,
2013-02-22 13:37:00,35.6,23.9,30.27,SE,136,3.0,7.0,62,0.00,,,0.00,meteohub,2013-02-22 18:37:00,
2013-02-22 13:42:00,35.6,23.9,30.27,SE,133,2.0,6.0,62,0.00,,,0.00,meteohub,2013-02-22 18:42:00,
2013-02-22 13:47:00,36.0,24.6,30.26,ENE,57,4.0,6.0,63,0.00,,,0.00,meteohub,2013-02-22 18:47:00,
2013-02-22 13:52:00,36.1,24.1,30.26,ENE,70,7.0,7.0,61,0.00,,,0.00,meteohub,2013-02-22 18:52:00,
2013-02-22 13:57:00,36.1,24.1,30.26,SE,138,3.0,7.0,61,0.00,,,0.00,meteohub,2013-02-22 18:57:00,
2013-02-22 14:02:00,36.1,24.4,30.26,SE,138,2.0,7.0,62,0.00,,,0.00,meteohub,2013-02-22 19:02:00,
2013-02-22 14:07:00,36.3,24.1,30.26,SSE,150,2.0,7.0,61,0.00,,,0.00,meteohub,2013-02-22 19:07:00,
2013-02-22 14:12:00,36.3,24.1,30.26,ESE,113,2.0,7.0,61,0.00,,,0.00,meteohub,2013-02-22 19:12:00,
2013-02-22 14:17:00,36.5,24.3,30.26,ESE,105,7.0,7.0,61,0.00,,,0.00,meteohub,2013-02-22 19:17:00,
2013-02-22 14:22:00,36.3,24.1,30.25,SE,142,1.0,8.0,61,0.00,,,0.00,meteohub,2013-02-22 19:22:00,
2013-02-22 14:27:00,36.5,24.3,30.25,SSE,162,1.0,8.0,61,0.00,,,0.00,meteohub,2013-02-22 19:27:00,
2013-02-22 14:32:00,36.5,24.3,30.25,East,87,1.0,8.0,61,0.00,,,0.00,meteohub,2013-02-22 19:32:00,
2013-02-22 14:37:00,36.7,25.0,30.25,SSE,149,3.0,7.0,62,0.00,,,0.00,meteohub,2013-02-22 19:37:00,
2013-02-22 14:42:00,36.7,24.1,30.25,SW,224,2.0,5.0,60,0.00,,,0.00,meteohub,2013-02-22 19:42:00,
2013-02-22 14:47:00,36.7,24.4,30.25,ENE,68,2.0,4.0,61,0.00,,,0.00,meteohub,2013-02-22 19:47:00,
2013-02-22 14:52:00,36.3,24.1,30.25,ENE,76,2.0,4.0,61,0.00,,,0.00,meteohub,2013-02-22 19:52:00,
2013-02-22 14:57:00,36.3,24.1,30.25,SSE,150,3.0,5.0,61,0.00,,,0.00,meteohub,2013-02-22 19:57:00,
2013-02-22 15:02:00,36.1,24.1,30.25,ESE,107,4.0,6.0,61,0.00,,,0.00,meteohub,2013-02-22 20:02:00,
2013-02-22 15:07:00,36.0,24.3,30.25,ESE,105,2.0,6.0,62,0.00,,,0.00,meteohub,2013-02-22 20:07:00,
2013-02-22 15:12:00,36.0,24.3,30.24,East,83,2.0,6.0,62,0.00,,,0.00,meteohub,2013-02-22 20:12:00,
2013-02-22 15:17:00,35.8,24.4,30.25,East,85,4.0,7.0,63,0.00,,,0.00,meteohub,2013-02-22 20:17:00,
2013-02-22 15:22:00,35.8,24.4,30.25,ENE,69,2.0,7.0,63,0.00,,,0.00,meteohub,2013-02-22 20:22:00,
2013-02-22 15:27:00,36.0,24.6,30.25,SE,134,2.0,7.0,63,0.00,,,0.00,meteohub,2013-02-22 20:27:00,
2013-02-22 15:32:00,36.0,24.6,30.25,East,101,1.0,6.0,63,0.00,,,0.00,meteohub,2013-02-22 20:32:00,
2013-02-22 15:37:00,36.0,24.3,30.25,ENE,68,1.0,4.0,62,0.00,,,0.00,meteohub,2013-02-22 20:37:00,
2013-02-22 15:42:00,36.1,24.8,30.25,ENE,65,0.0,3.0,63,0.00,,,0.00,meteohub,2013-02-22 20:42:00,
2013-02-22 15:47:00,36.1,24.8,30.25,ENE,65,0.0,3.0,63,0.00,,,0.00,meteohub,2013-02-22 20:47:00,
2013-02-22 15:52:00,36.0,24.3,30.25,ESE,122,2.0,3.0,62,0.00,,,0.00,meteohub,2013-02-22 20:52:00,
2013-02-22 15:57:00,36.0,24.6,30.26,ESE,115,1.0,5.0,63,0.00,,,0.00,meteohub,2013-02-22 20:57:00,
2013-02-22 16:02:00,35.8,24.4,30.25,SE,127,1.0,5.0,63,0.00,,,0.00,meteohub,2013-02-22 21:02:00,
2013-02-22 16:07:00,35.8,24.4,30.25,SSE,160,1.0,4.0,63,0.00,,,0.00,meteohub,2013-02-22 21:07:00,
2013-02-22 16:12:00,35.8,24.8,30.25,ESE,107,0.0,4.0,64,0.00,,,0.00,meteohub,2013-02-22 21:12:00,
2013-02-22 16:17:00,35.8,24.8,30.25,ENE,69,2.0,3.0,64,0.00,,,0.00,meteohub,2013-02-22 21:17:00,
2013-02-22 16:22:00,35.8,24.8,30.25,ESE,120,1.0,4.0,64,0.00,,,0.00,meteohub,2013-02-22 21:22:00,
2013-02-22 16:27:00,35.8,24.4,30.25,ENE,61,2.0,4.0,63,0.00,,,0.00,meteohub,2013-02-22 21:27:00,
2013-02-22 16:32:00,35.8,24.4,30.25,East,91,1.0,4.0,63,0.00,,,0.00,meteohub,2013-02-22 21:32:00,
2013-02-22 16:37:00,35.6,24.6,30.25,East,81,2.0,4.0,64,0.00,,,0.00,meteohub,2013-02-22 21:37:00,
2013-02-22 16:42:00,35.6,24.6,30.25,SE,142,1.0,4.0,64,0.00,,,0.00,meteohub,2013-02-22 21:42:00,
2013-02-22 16:47:00,35.6,24.6,30.25,East,88,2.0,5.0,64,0.00,,,0.00,meteohub,2013-02-22 21:47:00,
2013-02-22 16:52:00,35.6,24.6,30.25,ESE,103,2.0,5.0,64,0.00,,,0.00,meteohub,2013-02-22 21:52:00,
2013-02-22 16:57:00,35.4,24.8,30.25,East,89,0.0,5.0,65,0.00,,,0.00,meteohub,2013-02-22 21:57:00,
2013-02-22 17:02:00,35.4,24.8,30.25,ESE,118,0.0,3.0,65,0.00,,,0.00,meteohub,2013-02-22 22:02:00,
2013-02-22 17:07:00,35.2,24.6,30.25,East,97,0.0,3.0,65,0.00,,,0.00,meteohub,2013-02-22 22:07:00,
2013-02-22 17:12:00,35.2,25.0,30.25,East,84,0.0,2.0,66,0.00,,,0.00,meteohub,2013-02-22 22:12:00,
2013-02-22 17:17:00,35.2,25.0,30.25,ENE,77,0.0,3.0,66,0.00,,,0.00,meteohub,2013-02-22 22:17:00,
2013-02-22 17:22:00,35.1,24.8,30.25,ENE,78,0.0,3.0,66,0.00,,,0.00,meteohub,2013-02-22 22:22:00,
2013-02-22 17:27:00,35.1,24.8,30.25,ENE,78,0.0,1.0,66,0.00,,,0.00,meteohub,2013-02-22 22:27:00,
2013-02-22 17:32:00,34.9,24.6,30.25,East,79,0.0,1.0,66,0.00,,,0.00,meteohub,2013-02-22 22:32:00,
2013-02-22 17:37:00,34.9,25.0,30.25,East,79,0.0,1.0,67,0.00,,,0.00,meteohub,2013-02-22 22:37:00,
2013-02-22 17:42:00,34.9,25.0,30.25,East,79,0.0,1.0,67,0.00,,,0.00,meteohub,2013-02-22 22:42:00,
2013-02-22 17:47:00,34.9,25.0,30.25,ENE,77,1.0,0.0,67,0.00,,,0.00,meteohub,2013-02-22 22:47:00,
2013-02-22 17:52:00,34.7,24.8,30.25,East,94,0.0,3.0,67,0.00,,,0.00,meteohub,2013-02-22 22:52:00,
2013-02-22 17:57:00,34.5,25.0,30.25,East,93,0.0,3.0,68,0.00,,,0.00,meteohub,2013-02-22 22:57:00,
2013-02-22 18:02:00,34.5,25.0,30.24,ENE,78,1.0,3.0,68,0.00,,,0.00,meteohub,2013-02-22 23:02:00,
2013-02-22 18:07:00,34.5,25.3,30.23,ESE,115,1.0,3.0,69,0.00,,,0.00,meteohub,2013-02-22 23:07:00,
2013-02-22 18:12:00,34.5,25.3,30.24,East,101,1.0,4.0,69,0.00,,,0.00,meteohub,2013-02-22 23:12:00,
2013-02-22 18:17:00,34.3,25.2,30.24,East,82,1.0,4.0,69,0.00,,,0.00,meteohub,2013-02-22 23:17:00,
2013-02-22 18:22:00,34.3,25.5,30.24,ENE,64,3.0,4.0,70,0.00,,,0.00,meteohub,2013-02-22 23:22:00,
2013-02-22 18:27:00,34.5,25.7,30.24,East,88,1.0,4.0,70,0.00,,,0.00,meteohub,2013-02-22 23:27:00,
2013-02-22 18:32:00,34.3,25.5,30.24,East,95,1.0,4.0,70,0.00,,,0.00,meteohub,2013-02-22 23:32:00,
2013-02-22 18:37:00,34.5,26.1,30.24,East,100,0.0,4.0,71,0.00,,,0.00,meteohub,2013-02-22 23:37:00,
2013-02-22 18:42:00,34.3,25.9,30.24,East,84,0.0,4.0,71,0.00,,,0.00,meteohub,2013-02-22 23:42:00,
2013-02-22 18:47:00,34.3,25.9,30.25,East,81,1.0,4.0,71,0.00,,,0.00,meteohub,2013-02-22 23:47:00,
2013-02-22 18:52:00,34.3,25.9,30.25,East,87,1.0,3.0,71,0.00,,,0.00,meteohub,2013-02-22 23:52:00,
2013-02-22 18:57:00,34.3,26.2,30.25,East,98,0.0,2.0,72,0.00,,,0.00,meteohub,2013-02-22 23:57:00,
2013-02-22 19:02:00,34.3,26.2,30.25,East,86,3.0,3.0,72,0.00,,,0.00,meteohub,2013-02-23 00:02:00,
2013-02-22 19:07:00,34.3,26.2,30.25,East,89,1.0,4.0,72,0.00,,,0.00,meteohub,2013-02-23 00:07:00,
2013-02-22 19:12:00,34.2,26.1,30.25,SE,124,0.0,4.0,72,0.00,,,0.00,meteohub,2013-02-23 00:12:00,
2013-02-22 19:17:00,34.2,26.4,30.26,East,95,0.0,4.0,73,0.00,,,0.00,meteohub,2013-02-23 00:17:00,
2013-02-22 19:22:00,34.2,26.4,30.25,East,96,0.0,3.0,73,0.00,,,0.00,meteohub,2013-02-23 00:22:00,
2013-02-22 19:27:00,34.0,26.2,30.25,East,90,0.0,2.0,73,0.00,,,0.00,meteohub,2013-02-23 00:27:00,
2013-02-22 19:32:00,34.0,26.2,30.25,East,82,0.0,2.0,73,0.00,,,0.00,meteohub,2013-02-23 00:32:00,
2013-02-22 19:37:00,34.0,26.6,30.25,East,82,0.0,2.0,74,0.00,,,0.00,meteohub,2013-02-23 00:37:00,
2013-02-22 19:42:00,34.0,26.6,30.25,East,86,0.0,2.0,74,0.00,,,0.00,meteohub,2013-02-23 00:42:00,
2013-02-22 19:47:00,33.8,26.8,30.25,ESE,111,1.0,2.0,75,0.00,,,0.00,meteohub,2013-02-23 00:47:00,
2013-02-22 19:52:00,33.8,26.8,30.25,East,101,0.0,5.0,75,0.00,,,0.00,meteohub,2013-02-23 00:52:00,
2013-02-22 19:57:00,33.8,26.8,30.25,SE,131,2.0,5.0,75,0.00,,,0.00,meteohub,2013-02-23 00:57:00,
2013-02-22 20:02:00,33.6,26.8,30.25,East,82,5.0,5.0,76,0.00,,,0.00,meteohub,2013-02-23 01:02:00,
2013-02-22 20:07:00,33.6,26.8,30.25,ESE,118,3.0,6.0,76,0.00,,,0.00,meteohub,2013-02-23 01:07:00,
2013-02-22 20:12:00,33.6,27.1,30.25,East,97,3.0,6.0,77,0.00,,,0.00,meteohub,2013-02-23 01:12:00,
2013-02-22 20:17:00,33.6,27.1,30.25,ESE,103,2.0,6.0,77,0.00,,,0.00,meteohub,2013-02-23 01:17:00,
2013-02-22 20:22:00,33.6,27.1,30.25,East,85,1.0,3.0,77,0.00,,,0.00,meteohub,2013-02-23 01:22:00,
2013-02-22 20:27:00,33.6,27.1,30.25,East,86,1.0,3.0,77,0.00,,,0.00,meteohub,2013-02-23 01:27:00,
2013-02-22 20:33:00,33.6,27.5,30.25,East,85,2.0,5.0,78,0.00,,,0.00,meteohub,2013-02-23 01:33:00,
2013-02-22 20:38:00,33.6,27.5,30.24,East,83,0.0,5.0,78,0.00,,,0.00,meteohub,2013-02-23 01:38:00,
2013-02-22 20:43:00,33.4,27.3,30.24,ENE,72,1.0,5.0,78,0.00,,,0.00,meteohub,2013-02-23 01:43:00,
2013-02-22 20:48:00,33.4,27.7,30.23,ENE,63,4.0,5.0,79,0.00,,,0.00,meteohub,2013-02-23 01:48:00,
2013-02-22 20:53:00,33.4,27.7,30.23,East,91,1.0,5.0,79,0.00,,,0.00,meteohub,2013-02-23 01:53:00,
2013-02-22 20:58:00,33.4,27.7,30.23,East,98,2.0,5.0,79,0.00,,,0.00,meteohub,2013-02-23 01:58:00,
2013-02-22 21:03:00,33.4,27.7,30.23,East,101,1.0,5.0,79,0.00,,,0.00,meteohub,2013-02-23 02:03:00,
2013-02-22 21:08:00,33.3,27.7,30.24,East,86,1.0,5.0,80,0.00,,,0.00,meteohub,2013-02-23 02:08:00,
2013-02-22 21:13:00,33.3,27.7,30.24,ENE,75,0.0,2.0,80,0.00,,,0.00,meteohub,2013-02-23 02:13:00,
2013-02-22 21:18:00,33.3,27.7,30.23,East,98,0.0,2.0,80,0.00,,,0.00,meteohub,2013-02-23 02:18:00,
2013-02-22 21:23:00,33.3,27.7,30.23,East,101,0.0,2.0,80,0.00,,,0.00,meteohub,2013-02-23 02:23:00,
2013-02-22 21:28:00,33.3,27.7,30.23,East,94,1.0,3.0,80,0.00,,,0.00,meteohub,2013-02-23 02:28:00,
2013-02-22 21:33:00,33.3,27.7,30.23,East,97,1.0,3.0,80,0.00,,,0.00,meteohub,2013-02-23 02:33:00,
2013-02-22 21:39:00,33.3,28.0,30.24,East,97,0.0,3.0,81,0.00,,,0.00,meteohub,2013-02-23 02:39:00,
2013-02-22 21:44:00,33.3,28.0,30.23,ENE,72,0.0,3.0,81,0.00,,,0.00,meteohub,2013-02-23 02:44:00,
2013-02-22 21:49:00,33.3,28.0,30.23,ENE,75,0.0,2.0,81,0.00,,,0.00,meteohub,2013-02-23 02:49:00,
2013-02-22 21:54:00,33.3,28.0,30.24,ENE,75,0.0,3.0,81,0.00,,,0.00,meteohub,2013-02-23 02:54:00,
2013-02-22 21:59:00,33.1,27.9,30.24,ENE,75,0.0,3.0,81,0.00,,,0.00,meteohub,2013-02-23 02:59:00,
2013-02-22 22:04:00,33.1,27.9,30.24,ENE,75,0.0,3.0,81,0.00,,,0.00,meteohub,2013-02-23 03:04:00,
2013-02-22 22:09:00,33.1,27.9,30.24,ENE,75,0.0,1.0,81,0.00,,,0.00,meteohub,2013-02-23 03:09:00,
2013-02-22 22:14:00,32.7,27.5,30.24,ENE,75,0.0,1.0,81,0.00,,,0.00,meteohub,2013-02-23 03:14:00,
2013-02-22 22:19:00,32.7,27.9,30.23,ENE,75,0.0,1.0,82,0.00,,,0.00,meteohub,2013-02-23 03:19:00,
2013-02-22 22:24:00,32.5,27.7,30.23,ENE,75,0.0,0.0,82,0.00,,,0.00,meteohub,2013-02-23 03:24:00,
2013-02-22 22:29:00,32.5,27.7,30.23,ENE,75,0.0,0.0,82,0.00,,,0.00,meteohub,2013-02-23 03:29:00,
2013-02-22 22:34:00,32.4,27.5,30.22,ENE,75,0.0,0.0,82,0.00,,,0.00,meteohub,2013-02-23 03:34:00,
2013-02-22 22:39:00,32.4,27.9,30.22,ENE,75,0.0,0.0,83,0.00,,,0.00,meteohub,2013-02-23 03:39:00,
2013-02-22 22:45:00,32.4,27.9,30.22,ENE,75,0.0,0.0,83,0.00,,,0.00,meteohub,2013-02-23 03:45:00,
2013-02-22 22:50:00,32.4,27.9,30.22,ENE,75,0.0,0.0,83,0.00,,,0.00,meteohub,2013-02-23 03:50:00,
2013-02-22 22:55:00,32.4,27.9,30.21,ENE,75,0.0,1.0,83,0.00,,,0.00,meteohub,2013-02-23 03:55:00,
2013-02-22 23:00:00,32.4,27.9,30.21,ENE,73,0.0,1.0,83,0.00,,,0.00,meteohub,2013-02-23 04:00:00,
2013-02-22 23:05:00,32.4,27.9,30.21,ENE,73,0.0,1.0,83,0.00,,,0.00,meteohub,2013-02-23 04:05:00,
2013-02-22 23:10:00,32.4,28.0,30.20,ENE,73,0.0,1.0,84,0.00,,,0.00,meteohub,2013-02-23 04:10:00,
2013-02-22 23:15:00,32.4,28.0,30.20,ENE,73,0.0,1.0,84,0.00,,,0.00,meteohub,2013-02-23 04:15:00,
2013-02-22 23:20:00,32.5,28.2,30.20,ENE,73,0.0,1.0,84,0.00,,,0.00,meteohub,2013-02-23 04:20:00,
2013-02-22 23:25:00,32.5,28.2,30.20,ENE,71,0.0,1.0,84,0.00,,,0.00,meteohub,2013-02-23 04:25:00,
2013-02-22 23:30:00,32.5,28.2,30.19,ENE,71,0.0,1.0,84,0.00,,,0.00,meteohub,2013-02-23 04:30:00,
2013-02-22 23:35:00,32.7,28.8,30.19,ENE,61,1.0,3.0,85,0.00,,,0.00,meteohub,2013-02-23 04:35:00,
2013-02-22 23:40:00,32.7,28.8,30.19,NE,45,2.0,3.0,85,0.00,,,0.00,meteohub,2013-02-23 04:40:00,
2013-02-22 23:46:00,32.9,28.9,30.19,NE,49,0.0,3.0,85,0.00,,,0.00,meteohub,2013-02-23 04:46:00,
2013-02-22 23:51:00,32.9,28.9,30.20,ESE,104,0.0,2.0,85,0.00,,,0.00,meteohub,2013-02-23 04:51:00,
2013-02-22 23:56:00,32.9,28.9,30.19,ESE,117,0.0,2.0,85,0.00,,,0.00,meteohub,2013-02-23 04:56:00,